Find Starlink 32540

NORAD ID: 61723 Int'l Des: 2024-196 Owner: SPXS Country: US Constellation: starlink operational
LEOCIRCULAR

現在のビュー

3D地球を読み込み中...

About Starlink 32540

Starlink 32540 (NORAD 61723) is a starlink constellation satellite (v2 mini) launched Oct 30, 2024 by SPXS of US. It operates in LEO, CIRCULAR orbit with a mass of 730.00 kg.

Starlink 32540について

説明を読み込み中...

次回通過

Passes for default location (London). Set your location on the main map for personalized predictions.

高度履歴

Loading altitude history...

軌道要素

1 61723U 24196S 26192.61727000 .00003307 00000-0 10900-3 0 9990
2 61723 53.1559 208.7191 0001661 87.7913 272.3280 15.34393447 96648
Epoch: Jul 11, 2026 • Age: 24 hours

現在のステータス

高度 475.5 km
遠地点 / 近地点 N/A
速度 7.63 km/s
衛星直下点 -37.16°S, 101.03°W
打ち上げ日 Oct 30, 2024
運用期間 1.6 years
タイプ internet

技術仕様

分類 Payload
質量 730.00 kg
乾燥質量 700.00 kg
総質量 730.00 kg
長さ 0.30 m
直径 4.10 m
スパン 29.00 m
形状 Box + pan
製造者 SPXS
バスタイプ Starlink V2M
フェーズステータス In Orbit
所有者/国 SPXS/US

Most Searched